1489662000.57,38281,9.88,73188.8,-6.85,-11.37,-11.51,0,*5B
1489662001.81,38282,9.88,73180.8,-6.85,-11.41,-11.51,0,*59
1489662003.08,38283,9.88,73176.3,-6.91,-10.71,-10.53,0,*5C
1489662004.32,38284,9.88,73158.8,-6.91,-10.19,-10.19,0,*5B
1489662005.56,38285,9.88,73162.3,-6.93,-11.01,-11.15,0,*5D
1489662006.8,38286,9.88,73150.0,-6.95,-11.01,-11.07,0,*5B
1489662008.02,38287,9.88,73146.5,-6.99,-10.97,-10.97,0,*50
1489662009.29,38288,9.88,73172.0,-6.99,-10.67,-10.67,0,*5F
1489662010.55,38289,9.88,73164.8,-7.01,-10.57,-10.71,0,*5A
1489662011.82,38290,9.88,73116.8,-7.01,-10.67,-10.97,0,*59
1489662013.03,38291,9.88,73076.0,-7.03,-10.27,-10.27,0,*55
1489662014.23,38292,9.88,73120.3,-7.03,-9.19,-9.19,0,*56
1489662015.46,38293,9.88,73114.0,-7.03,-9.31,-9.45,0,*54
1489662016.71,38294,9.88,73136.5,-7.05,-9.05,-9.11,0,*53
1489662017.91,38295,9.88,73184.3,-7.03,-8.85,-8.93,0,*56
1489662019.14,38296,9.88,73176.8,-7.03,-9.05,-9.11,0,*57
1489662020.34,38297,9.88,73200.8,-7.03,-9.05,-9.19,0,*5E
1489662021.56,38298,9.88,73192.0,-7.01,-8.63,-8.63,0,*5E
1489662022.76,38299,9.88,73210.5,-6.99,-8.89,-8.93,0,*54
1489662023.98,38300,9.88,73218.5,-7.01,-8.71,-8.75,0,*5A
1489662025.2,38301,9.88,73194.3,-7.01,-8.63,-8.63,0,*5F
1489662026.39,38302,9.88,73200.3,-6.99,-8.63,-8.59,0,*55
1489662027.61,38303,9.88,73190.0,-6.99,-8.45,-8.51,0,*58
1489662028.81,38304,9.88,73170.0,-6.95,-8.55,-8.55,0,*56
1489662030.02,38305,9.88,73168.5,-6.93,-8.55,-8.55,0,*51
1489662031.26,38306,9.88,73166.8,-6.93,-8.85,-8.85,0,*52
1489662032.51,38307,9.88,73180.5,-6.93,-9.01,-9.11,0,*52
1489662033.79,38308,9.88,73178.5,-6.93,-9.37,-9.37,0,*5C
1489662035.05,38309,9.88,73164.5,-6.95,-9.37,-9.49,0,*52
1489662036.26,38310,9.88,73156.8,-6.93,-8.75,-8.75,0,*55
1489662037.49,38311,9.88,73164.3,-6.93,-8.41,-8.41,0,*54
1489662038.71,38312,9.88,73158.5,-6.91,-8.41,-8.41,0,*55
1489662039.94,38313,9.88,73164.3,-6.91,-8.29,-8.25,0,*58
1489662041.19,38314,9.88,73174.8,-6.87,-8.45,-8.51,0,*51
1489662042.42,38315,9.88,73184.3,-6.91,-9.75,-9.67,0,*51
1489662043.65,38316,9.88,73216.5,-6.91,-8.71,-8.71,0,*51
1489662044.88,38317,9.88,73214.5,-6.91,-8.85,-8.85,0,*50
1489662046.11,38318,9.88,73218.3,-6.87,-9.27,-9.27,0,*58
1489662047.4,38319,9.88,73226.5,-6.91,-9.37,-9.45,0,*5B
1489662048.65,38320,9.88,73212.5,-6.91,-9.31,-9.37,0,*52
1489662049.9,38321,9.88,73216.8,-6.91,-9.37,-9.31,0,*53
1489662051.12,38322,9.88,73214.5,-6.91,-8.67,-8.67,0,*56
1489662052.4,38323,9.88,73218.3,-6.91,-9.45,-9.45,0,*57
1489662053.68,38324,9.88,73226.3,-6.91,-9.37,-9.37,0,*50
1489662054.96,38325,9.88,73226.0,-6.93,-9.37,-9.41,0,*52
1489662056.18,38326,9.88,73228.3,-6.93,-8.75,-8.75,0,*50
1489662057.37,38327,9.88,73238.5,-6.95,-8.55,-8.55,0,*57
1489662058.61,38328,9.88,73232.3,-6.91,-8.85,-8.85,0,*5C
1489662059.89,38329,9.88,73236.0,-6.91,-9.37,-9.49,0,*54
1489662061.14,38330,9.88,73258.3,-6.93,-9.15,-9.23,0,*52
1489662062.37,38331,9.88,73246.8,-6.95,-9.11,-9.01,0,*51
1489662063.6,38332,9.88,73236.8,-6.93,-8.75,-8.85,0,*5A
1489662064.85,38333,9.88,73230.0,-6.93,-9.01,-9.15,0,*51
1489662066.13,38334,9.88,73224.8,-6.93,-9.37,-9.49,0,*5A
1489662067.38,38335,9.88,73234.0,-6.93,-9.27,-9.49,0,*5A
1489662068.63,38336,9.88,73234.5,-6.93,-9.27,-9.37,0,*50
1489662069.86,38337,9.88,73234.3,-6.93,-9.01,-9.23,0,*50
1489662071.12,38338,9.88,73222.5,-6.93,-9.41,-9.71,0,*5C
1489662072.32,38339,9.88,73204.3,-6.95,-9.79,-10.05,0,*6B
1489662073.52,38340,9.88,73192.8,-6.95,-10.09,-10.23,0,*5E
1489662074.75,38341,9.88,73184.5,-6.95,-10.53,-10.79,0,*5F
1489662075.99,38342,9.88,73200.3,-6.99,-10.27,-10.67,0,*5C
1489662077.26,38343,9.88,73196.8,-7.01,-10.15,-10.41,0,*58
1489662078.52,38344,9.88,73196.8,-7.01,-10.27,-10.41,0,*5E
1489662079.73,38345,9.88,73212.3,-7.03,-9.75,-10.01,0,*66
1489662080.96,38346,9.88,73196.5,-7.05,-10.27,-10.57,0,*5F
1489662082.22,38347,9.88,73222.8,-7.05,-10.31,-10.71,0,*5D
1489662083.43,38348,9.88,73212.3,-7.07,-10.57,-10.89,0,*57
1489662084.69,38349,9.88,73178.0,-7.09,-10.57,-10.79,0,*57
1489662085.92,38350,9.88,73184.3,-7.09,-10.89,-11.19,0,*5B
1489662087.13,38351,9.88,73174.0,-7.11,-10.35,-10.53,0,*5B
1489662088.35,38352,9.88,73180.0,-7.11,-9.19,-9.41,0,*55
1489662089.57,38353,9.88,73156.3,-7.11,-9.41,-9.67,0,*5D
1489662090.82,38354,9.88,73190.8,-7.11,-9.41,-9.57,0,*59
1489662092.04,38355,9.88,73200.8,-7.11,-9.15,-9.31,0,*59
1489662093.29,38356,9.88,73232.0,-7.09,-9.23,-9.49,0,*59
1489662094.57,38357,9.88,73234.8,-7.09,-9.15,-9.37,0,*54
1489662095.79,38358,9.88,73246.8,-7.09,-8.55,-8.71,0,*5D
1489662096.99,38359,9.88,73242.0,-7.07,-8.59,-8.97,0,*56
1489662098.24,38360,9.88,73234.8,-7.07,-9.15,-9.37,0,*5E
1489662099.47,38361,9.88,73232.0,-7.07,-9.27,-9.61,0,*5D
1489662100.67,38362,9.88,73238.0,-7.07,-8.67,-8.85,0,*50
1489662101.86,38363,9.88,73234.5,-7.07,-8.41,-8.67,0,*59
1489662103.11,38364,9.94,73240.3,-7.05,-8.11,-8.37,0,*5C
1489662104.33,38365,9.88,73228.3,-7.03,-8.37,-8.51,0,*5F
1489662105.55,38366,9.88,73230.8,-7.03,-8.37,-8.51,0,*5C
1489662106.77,38367,9.88,73232.8,-6.99,-8.51,-8.63,0,*5E
1489662107.97,38368,9.88,73224.0,-6.99,-8.63,-8.63,0,*50
1489662109.21,38369,9.88,73228.5,-7.01,-8.71,-8.81,0,*5E
1489662110.43,38370,9.94,73232.8,-7.01,-8.59,-8.71,0,*53
1489662111.62,38371,9.88,73230.3,-6.99,-8.59,-8.63,0,*51
1489662112.85,38372,9.88,73220.3,-6.95,-9.15,-9.27,0,*56
1489662114.05,38373,9.88,73214.0,-6.95,-9.67,-9.79,0,*59
1489662115.29,38374,9.88,73216.8,-6.95,-9.83,-9.83,0,*51
1489662116.51,38375,9.88,73212.8,-6.95,-9.53,-9.67,0,*57
1489662117.72,38376,9.88,73212.3,-6.99,-10.01,-10.01,0,*5F
1489662118.94,38377,9.88,73228.0,-6.99,-9.61,-9.71,0,*5F
1489662120.23,38378,9.88,73216.3,-7.01,-10.41,-10.41,0,*51
1489662121.46,38379,9.88,73176.5,-6.99,-10.57,-10.71,0,*54
1489662122.68,38380,9.88,73148.0,-6.99,-10.27,-10.35,0,*55
1489662123.89,38381,9.88,73140.5,-7.03,-10.27,-10.31,0,*52
1489662125.12,38382,9.88,73152.5,-7.03,-10.63,-10.85,0,*5E
1489662126.36,38383,9.88,73130.0,-7.05,-11.01,-11.23,0,*51
1489662127.61,38384,9.88,73162.5,-7.07,-11.33,-11.59,0,*58
1489662128.88,38385,9.88,73174.5,-7.09,-11.45,-11.59,0,*56
1489662130.14,38386,9.88,73168.8,-7.09,-11.07,-11.15,0,*5B
1489662131.4,38387,9.88,73200.3,-7.13,-10.93,-11.07,0,*5E
1489662132.63,38388,9.94,73188.5,-7.13,-10.97,-10.97,0,*5D
1489662133.89,38389,9.88,73188.3,-7.17,-11.23,-11.37,0,*5D
1489662135.18,38390,9.88,73184.5,-7.17,-10.71,-10.75,0,*54
1489662136.42,38391,9.94,73188.8,-7.17,-10.57,-10.53,0,*55
1489662137.66,38392,9.88,73200.5,-7.17,-10.57,-10.57,0,*52
1489662138.92,38393,9.94,73194.8,-7.23,-10.71,-10.75,0,*50
1489662140.13,38394,9.88,73192.5,-7.23,-10.23,-10.31,0,*50
1489662141.36,38395,9.88,73214.8,-7.21,-9.79,-9.75,0,*5C
1489662142.58,38396,9.88,73214.8,-7.23,-9.67,-9.61,0,*57
1489662143.82,38397,9.88,73226.8,-7.23,-9.61,-9.61,0,*50
1489662145.04,38398,9.88,73222.8,-7.21,-8.97,-8.93,0,*59
1489662146.26,38399,9.88,73214.5,-7.21,-9.27,-9.27,0,*5C
1489662147.52,38400,9.94,73216.5,-7.21,-9.37,-9.27,0,*5A
1489662148.79,38401,9.88,73216.5,-7.17,-8.51,-8.51,0,*5F
1489662150.01,38402,9.94,73212.3,-7.17,-8.37,-8.41,0,*5D
1489662151.26,38403,9.94,73222.8,-7.15,-8.51,-8.51,0,*5F
1489662152.46,38404,9.88,73216.0,-7.15,-8.55,-8.55,0,*58
1489662153.66,38405,9.88,73220.3,-7.15,-8.41,-8.37,0,*58
1489662154.88,38406,9.88,73212.5,-7.13,-8.37,-8.45,0,*59
1489662156.1,38407,9.88,73216.5,-7.11,-8.25,-8.11,0,*58
1489662157.35,38408,9.88,73226.8,-7.11,-8.11,-8.07,0,*57
1489662158.57,38409,9.88,73226.3,-7.09,-8.21,-8.17,0,*5D
1489662159.76,38410,9.88,73220.3,-7.07,-8.29,-8.17,0,*53
1489662160.95,38411,9.88,73216.3,-7.07,-8.33,-8.29,0,*54
1489662162.18,38412,9.88,73212.8,-7.05,-8.37,-8.37,0,*5E
1489662163.43,38413,9.88,73222.3,-7.05,-8.17,-8.11,0,*59
1489662164.68,38414,9.88,73228.0,-7.03,-8.11,-7.99,0,*51
1489662165.92,38415,9.88,73242.3,-7.03,-8.03,-7.99,0,*53
1489662167.14,38416,9.94,73244.8,-7.01,-8.25,-8.25,0,*5E
1489662168.36,38417,9.88,73228.8,-7.01,-8.21,-8.21,0,*5F
1489662169.61,38418,9.88,73236.3,-6.99,-8.11,-8.07,0,*57
1489662170.81,38419,9.88,73246.0,-6.99,-8.37,-8.33,0,*55
1489662172.02,38420,9.88,73238.8,-6.93,-8.21,-8.17,0,*54
1489662173.25,38421,9.94,73254.0,-6.95,-7.91,-7.83,0,*55
1489662174.47,38422,9.94,73238.5,-6.93,-7.83,-7.83,0,*53
1489662175.69,38423,9.88,73216.3,-6.93,-8.59,-8.41,0,*5B
1489662176.92,38424,9.94,73216.0,-6.93,-8.71,-8.55,0,*53
1489662178.13,38425,9.88,73226.3,-6.93,-8.67,-8.55,0,*55
1489662179.38,38426,9.94,73244.5,-6.93,-8.17,-8.03,0,*52
1489662180.61,38427,9.88,73250.3,-6.91,-8.37,-8.37,0,*54
1489662181.84,38428,9.88,73226.8,-6.87,-8.25,-8.21,0,*58
1489662183.06,38429,9.88,73252.8,-6.91,-8.41,-8.29,0,*54
1489662184.29,38430,9.88,73268.3,-6.87,-8.25,-8.25,0,*55
1489662185.57,38431,9.88,73256.0,-6.87,-8.11,-8.11,0,*54
1489662186.79,38432,9.88,73248.8,-6.87,-8.25,-8.25,0,*57
1489662188.05,38433,9.88,73246.0,-6.87,-7.95,-7.87,0,*55
1489662189.29,38434,9.88,73210.3,-6.85,-7.95,-7.95,0,*53
1489662190.53,38435,9.88,73200.0,-6.85,-7.99,-7.95,0,*5E
1489662191.76,38436,9.88,73204.0,-6.85,-7.95,-7.87,0,*52
1489662193.0,38437,9.88,73204.3,-6.81,-8.03,-7.95,0,*54
1489662194.27,38438,9.88,73202.8,-6.79,-7.99,-8.11,0,*53
1489662195.53,38439,9.88,73204.5,-6.81,-8.51,-8.51,0,*5A
1489662196.75,38440,9.88,73212.3,-6.81,-8.81,-8.93,0,*57
1489662197.98,38441,9.88,73220.8,-6.81,-9.27,-9.41,0,*55
1489662199.2,38442,9.88,73226.3,-6.85,-9.05,-9.15,0,*53
1489662200.4,38443,9.88,73222.0,-6.81,-9.19,-9.27,0,*5A
1489662201.59,38444,9.88,73232.8,-6.85,-8.75,-8.67,0,*57
1489662202.81,38445,9.88,73234.5,-6.85,-8.51,-8.59,0,*5D
1489662204.02,38446,9.88,73228.0,-6.85,-8.89,-8.89,0,*56
1489662205.21,38447,9.88,73228.8,-6.81,-8.21,-8.29,0,*5B
1489662206.43,38448,9.88,73240.0,-6.85,-8.51,-8.63,0,*59
1489662207.62,38449,9.88,73242.3,-6.81,-8.33,-8.33,0,*5D
1489662208.81,38450,9.88,73226.8,-6.81,-8.29,-8.33,0,*5E
1489662210.0,38451,9.88,73212.5,-6.81,-8.29,-8.33,0,*5F
1489662211.2,38452,9.88,73222.3,-6.81,-8.21,-8.21,0,*57
1489662212.41,38453,9.88,73220.3,-6.81,-8.71,-8.85,0,*5D
1489662213.61,38454,9.88,73224.8,-6.81,-8.45,-8.45,0,*51
1489662214.8,38455,9.88,73228.3,-6.81,-8.33,-8.41,0,*55
1489662216.0,38456,9.88,73240.8,-6.81,-8.17,-8.29,0,*5E
1489662217.23,38457,9.88,73228.8,-6.85,-8.11,-8.25,0,*51
1489662218.43,38458,9.88,73226.0,-6.81,-8.37,-8.37,0,*5D
1489662219.64,38459,9.88,73234.3,-6.81,-8.25,-8.37,0,*5F
1489662220.83,38460,9.88,73222.5,-6.81,-8.17,-8.25,0,*57
1489662222.06,38461,9.88,73216.3,-6.79,-8.25,-8.29,0,*5C
1489662223.28,38462,9.88,73220.5,-6.79,-8.29,-8.29,0,*53
1489662224.48,38463,9.88,73220.5,-6.81,-8.41,-8.41,0,*55
1489662225.7,38464,9.88,73238.0,-6.79,-8.59,-8.67,0,*58
1489662226.92,38465,9.88,73244.0,-6.79,-8.25,-8.25,0,*54
1489662228.14,38466,9.88,73244.3,-6.79,-8.25,-8.29,0,*5B
1489662229.37,38467,9.88,73228.5,-6.77,-8.45,-8.51,0,*5D
1489662230.62,38468,9.88,73220.5,-6.77,-8.11,-8.11,0,*57
1489662231.82,38469,9.88,73214.8,-6.77,-8.21,-8.25,0,*52
1489662233.04,38470,9.88,73208.3,-6.77,-7.95,-7.87,0,*5D
1489662234.33,38471,9.88,73204.5,-6.75,-7.99,-8.07,0,*55
1489662235.6,38472,9.88,73212.8,-6.75,-7.99,-7.99,0,*5E
1489662236.85,38473,9.88,73214.0,-6.75,-7.87,-7.95,0,*5C
1489662238.1,38474,9.88,73208.0,-6.73,-7.77,-7.77,0,*5E
1489662239.3,38475,9.88,73206.5,-6.73,-8.29,-8.29,0,*5F
1489662240.55,38476,9.88,73192.3,-6.69,-8.07,-7.95,0,*53
1489662241.79,38477,9.88,73210.3,-6.69,-7.91,-7.95,0,*52
1489662243.02,38478,9.88,73210.3,-6.69,-7.91,-7.83,0,*5A
1489662244.26,38479,9.88,73226.3,-6.69,-8.03,-7.95,0,*58
1489662245.47,38480,9.88,73246.8,-6.69,-8.89,-8.97,0,*51
1489662246.69,38481,9.88,73154.5,-6.69,-9.79,-9.83,0,*5A
1489662247.89,38482,9.88,73100.0,-6.73,-9.93,-9.97,0,*53
1489662249.1,38483,9.88,73144.5,-6.73,-9.71,-9.67,0,*51
1489662250.32,38484,9.88,73136.5,-6.75,-8.75,-8.67,0,*54
1489662251.54,38485,9.88,73188.5,-6.75,-8.63,-8.55,0,*53
1489662252.77,38486,9.88,73124.5,-6.77,-9.15,-9.19,0,*5B
1489662253.97,38487,9.88,73134.8,-6.77,-9.71,-9.75,0,*52
1489662255.18,38488,9.88,73152.8,-6.77,-9.01,-9.01,0,*59
1489662256.41,38489,9.88,73184.0,-6.77,-9.19,-9.15,0,*54
1489662257.67,38490,9.88,73190.3,-6.79,-8.51,-8.37,0,*5E
1489662258.86,38491,9.88,73218.5,-6.77,-8.33,-8.21,0,*52
1489662260.1,38492,9.88,73228.0,-6.77,-7.99,-7.95,0,*5E
1489662261.36,38493,9.88,73236.8,-6.75,-8.21,-8.11,0,*52
1489662262.58,38494,9.88,73248.0,-6.75,-8.25,-8.21,0,*52
1489662263.81,38495,9.88,73218.3,-6.75,-8.55,-8.55,0,*57
1489662265.03,38496,9.88,73226.5,-6.75,-8.25,-8.21,0,*50
1489662266.24,38497,9.88,73236.0,-6.77,-7.87,-7.83,0,*53
1489662267.52,38498,9.88,73230.8,-6.75,-7.73,-7.69,0,*51
1489662268.79,38499,9.88,73216.5,-6.75,-7.95,-7.99,0,*57
1489662269.99,38500,9.88,73218.8,-6.69,-8.29,-8.21,0,*5F
1489662271.21,38501,9.88,73230.0,-6.69,-8.17,-8.03,0,*53
1489662272.45,38502,9.88,73238.3,-6.69,-8.03,-7.95,0,*55
1489662273.65,38503,9.88,73244.5,-6.69,-8.21,-8.21,0,*54
1489662274.85,38504,9.88,73274.3,-6.69,-8.41,-8.45,0,*57
1489662276.11,38505,9.88,73260.3,-6.73,-9.15,-9.15,0,*59
1489662277.32,38506,9.94,73220.3,-6.73,-8.41,-8.41,0,*5A
1489662278.51,38507,9.88,73246.8,-6.73,-8.17,-8.33,0,*5D
1489662279.71,38508,9.88,73266.5,-6.69,-8.17,-8.29,0,*52
1489662280.93,38509,9.88,73266.0,-6.69,-7.83,-7.95,0,*59
1489662282.18,38510,9.88,73270.8,-6.73,-7.91,-7.95,0,*59
1489662283.43,38511,9.88,73270.8,-6.69,-7.69,-7.65,0,*5B
1489662284.68,38512,9.88,73268.5,-6.69,-7.65,-7.91,0,*5F
1489662285.93,38513,9.88,73268.0,-6.69,-7.57,-7.57,0,*55
1489662287.18,38514,9.88,73270.5,-6.67,-7.43,-7.53,0,*5D
1489662288.43,38515,9.88,73262.8,-6.67,-7.49,-7.61,0,*57
1489662289.66,38516,9.88,73260.0,-6.65,-7.53,-7.77,0,*5A
1489662290.88,38517,9.88,73258.8,-6.65,-7.87,-8.11,0,*5D
1489662292.15,38518,9.88,73258.8,-6.63,-7.95,-7.99,0,*58
1489662293.41,38519,9.88,73256.5,-6.63,-7.61,-7.83,0,*59
1489662294.66,38520,9.88,73262.3,-6.63,-7.69,-7.87,0,*5F
1489662295.86,38521,9.88,73256.0,-6.61,-8.25,-8.37,0,*5F
1489662297.07,38522,9.88,73250.5,-6.63,-8.33,-8.55,0,*5D
1489662298.29,38523,9.88,73248.8,-6.63,-8.37,-8.75,0,*5A
1489662299.5,38524,9.88,73246.3,-6.61,-9.57,-9.71,0,*5D
1489662300.74,38525,9.88,73234.5,-6.63,-10.19,-10.45,0,*53
1489662301.98,38526,9.88,73230.0,-6.67,-10.15,-10.45,0,*58
1489662303.23,38527,9.88,73212.3,-6.67,-9.53,-9.67,0,*5B
1489662304.46,38528,9.88,73202.8,-6.69,-9.71,-9.83,0,*50
1489662305.71,38529,9.88,73188.5,-6.73,-10.67,-10.89,0,*57
1489662306.92,38530,9.88,73178.0,-6.77,-11.15,-11.41,0,*5A
1489662308.16,38531,9.88,73188.3,-6.77,-10.45,-10.67,0,*5A
1489662309.39,38532,9.88,73188.8,-6.79,-10.57,-10.85,0,*58
1489662310.61,38533,9.88,73198.0,-6.81,-10.19,-10.35,0,*5F
1489662311.87,38534,9.88,73194.5,-6.81,-9.37,-9.49,0,*5F
1489662313.09,38535,9.88,73202.5,-6.81,-9.57,-9.67,0,*54
1489662314.29,38536,9.88,73204.5,-6.81,-8.89,-9.01,0,*55
1489662315.52,38537,9.88,73208.0,-6.81,-8.51,-8.55,0,*51
1489662316.71,38538,9.88,73216.5,-6.81,-8.45,-8.55,0,*5B
1489662317.9,38539,9.88,73214.3,-6.81,-8.59,-8.75,0,*55
1489662319.16,38540,9.88,73214.5,-6.81,-9.37,-9.37,0,*55
1489662320.41,38541,9.88,73212.8,-6.81,-9.41,-9.61,0,*56
1489662321.61,38542,9.88,73216.0,-6.81,-9.23,-9.23,0,*57
1489662322.83,38543,9.88,73218.0,-6.81,-8.81,-8.71,0,*59
1489662324.05,38544,9.88,73226.5,-6.81,-8.81,-8.85,0,*55
1489662325.25,38545,9.88,73212.0,-6.81,-9.89,-10.05,0,*6C
1489662326.47,38546,9.88,73196.5,-6.81,-10.35,-10.35,0,*53
1489662327.67,38547,9.88,73198.5,-6.81,-9.97,-9.97,0,*52
1489662328.89,38548,9.88,73176.0,-6.85,-9.19,-9.15,0,*55
1489662330.09,38549,9.88,73180.0,-6.81,-8.63,-8.59,0,*55
1489662331.29,38550,9.88,73186.8,-6.85,-8.45,-8.37,0,*55
1489662332.48,38551,9.88,73168.0,-6.81,-8.33,-8.21,0,*56
1489662333.68,38552,9.88,73194.0,-6.81,-8.41,-8.41,0,*56
1489662334.88,38553,9.88,73196.3,-6.81,-8.45,-8.41,0,*53
1489662336.08,38554,9.88,73194.3,-6.81,-8.59,-8.59,0,*50
1489662337.3,38555,9.88,73192.8,-6.81,-8.55,-8.51,0,*55
1489662338.56,38556,9.88,73208.0,-6.81,-8.51,-8.51,0,*52
1489662339.81,38557,9.88,73222.8,-6.79,-8.11,-8.25,0,*53
1489662341.03,38558,9.88,73212.8,-6.79,-8.29,-8.37,0,*54
1489662342.31,38559,9.88,73216.8,-6.79,-8.03,-7.99,0,*56
1489662343.53,38560,9.88,73200.3,-6.77,-8.45,-8.51,0,*5B
1489662344.76,38561,9.88,73204.3,-6.75,-8.37,-8.45,0,*58
1489662345.96,38562,9.88,73214.0,-6.77,-8.55,-8.63,0,*59
1489662347.24,38563,9.88,73218.0,-6.75,-8.11,-8.07,0,*58
1489662348.44,38564,9.88,73222.0,-6.73,-8.29,-8.41,0,*50
1489662349.69,38565,9.88,73226.3,-6.73,-8.03,-8.03,0,*5F
1489662350.92,38566,9.88,73212.5,-6.73,-7.77,-7.83,0,*57
1489662352.17,38567,9.88,73198.3,-6.69,-7.57,-7.57,0,*56
1489662353.42,38568,9.88,73198.0,-6.69,-7.69,-7.77,0,*56
1489662354.65,38569,9.88,73192.0,-6.69,-7.69,-7.83,0,*5C
1489662355.9,38570,9.88,73192.8,-6.67,-7.87,-7.91,0,*59
1489662357.12,38571,9.88,73198.0,-6.65,-7.87,-7.91,0,*5A
1489662358.37,38572,9.88,73200.5,-6.65,-7.65,-7.77,0,*5D
1489662359.63,38573,9.88,73192.5,-6.65,-8.11,-8.11,0,*5F
1489662360.83,38574,9.88,73194.5,-6.65,-7.87,-7.87,0,*58
1489662362.05,38575,9.88,73196.0,-6.61,-7.95,-7.87,0,*5E
1489662363.28,38576,9.88,73182.0,-6.61,-8.11,-8.21,0,*5D
1489662364.5,38577,9.88,73184.5,-6.61,-8.25,-8.11,0,*58
1489662365.74,38578,9.88,73190.8,-6.61,-7.95,-7.95,0,*50
1489662366.98,38579,9.88,73188.5,-6.59,-8.03,-7.95,0,*5A
1489662368.23,38580,9.88,73184.3,-6.59,-8.03,-7.95,0,*5C
1489662369.5,38581,9.88,73200.5,-6.57,-8.03,-7.91,0,*57
1489662370.78,38582,9.88,73202.5,-6.57,-8.07,-7.95,0,*54
1489662372.05,38583,9.88,73218.5,-6.57,-7.91,-7.77,0,*59
1489662373.31,38584,9.88,73220.5,-6.55,-8.11,-7.99,0,*5B
1489662374.58,38585,9.88,73218.5,-6.53,-7.99,-7.91,0,*5B
1489662375.84,38586,9.88,73208.8,-6.53,-8.03,-7.99,0,*5C
1489662377.09,38587,9.88,73192.5,-6.53,-7.87,-7.73,0,*5A
1489662378.36,38588,9.88,73196.5,-6.53,-8.03,-7.91,0,*5A
1489662379.63,38589,9.88,73190.3,-6.53,-8.03,-7.99,0,*53
1489662380.87,38590,9.88,73186.0,-6.51,-7.69,-7.57,0,*58
1489662382.12,38591,9.88,73182.8,-6.51,-8.07,-7.99,0,*5C
1489662383.32,38592,9.88,73206.5,-6.51,-8.37,-8.21,0,*50
1489662384.55,38593,9.88,73218.3,-6.47,-8.51,-8.37,0,*51
1489662385.81,38594,9.88,73212.8,-6.51,-8.11,-8.07,0,*56
1489662387.01,38595,9.88,73174.8,-6.51,-8.21,-8.21,0,*50
1489662388.22,38596,9.88,73176.0,-6.51,-9.01,-9.01,0,*53
1489662389.42,38597,9.88,73202.3,-6.51,-8.89,-8.93,0,*59
1489662390.64,38598,9.88,73210.0,-6.51,-8.51,-8.41,0,*5C
1489662391.86,38599,9.88,73234.3,-6.53,-8.45,-8.33,0,*5F
1489662393.06,38600,9.88,73210.8,-6.51,-8.21,-8.21,0,*5F
1489662394.28,38601,9.88,73236.3,-6.47,-7.91,-7.83,0,*5A
1489662395.53,38602,9.88,73216.0,-6.53,-7.87,-7.77,0,*50
1489662396.77,38603,9.88,73210.5,-6.47,-7.95,-7.95,0,*5B
1489662398.02,38604,9.88,73246.0,-6.51,-7.69,-7.65,0,*57
1489662399.26,38605,9.88,73222.0,-6.47,-8.03,-7.95,0,*5D
1489662400.51,38606,9.88,73206.8,-6.47,-7.95,-7.91,0,*5A
1489662401.75,38607,9.88,73178.8,-6.47,-8.03,-7.95,0,*5F
1489662402.99,38608,9.88,73206.5,-6.47,-8.03,-8.03,0,*50
1489662404.18,38609,9.88,73206.0,-6.47,-8.33,-8.25,0,*56
1489662405.43,38610,9.88,73208.8,-6.47,-8.07,-8.07,0,*59
1489662406.63,38611,9.88,73190.5,-6.47,-8.17,-8.21,0,*5D
1489662407.83,38612,9.88,73190.5,-6.47,-8.17,-8.21,0,*5E
1489662409.02,38613,9.88,73198.8,-6.47,-8.33,-8.21,0,*59
1489662410.25,38614,9.88,73232.8,-6.51,-8.11,-8.21,0,*59
1489662411.47,38615,9.88,73230.3,-6.47,-7.91,-7.83,0,*5F
1489662412.73,38616,9.88,73226.8,-6.51,-8.11,-8.07,0,*5F
1489662413.93,38617,9.88,73214.8,-6.47,-8.21,-8.21,0,*5E
1489662415.16,38618,9.88,73210.8,-6.47,-8.03,-7.95,0,*51
1489662416.44,38619,9.88,73200.8,-6.45,-8.03,-8.07,0,*56
1489662417.63,38620,9.88,73236.8,-6.51,-8.29,-8.29,0,*5D
1489662418.85,38621,9.88,73242.3,-6.51,-8.51,-8.63,0,*5D
1489662420.04,38622,9.88,73252.3,-6.47,-8.59,-8.71,0,*52
1489662421.25,38623,9.88,73250.3,-6.47,-8.85,-8.97,0,*5A
1489662422.44,38624,9.88,73226.5,-6.47,-8.63,-8.71,0,*5D
1489662423.66,38625,9.88,73212.3,-6.51,-8.67,-8.81,0,*50
1489662424.86,38626,9.88,73210.0,-6.51,-8.75,-8.89,0,*58
1489662426.08,38627,9.88,73204.3,-6.47,-8.51,-8.59,0,*55
1489662427.27,38628,9.88,73182.0,-6.51,-8.21,-8.25,0,*51
1489662428.5,38629,9.88,73164.3,-6.51,-8.41,-8.51,0,*55
1489662429.69,38630,9.88,73190.0,-6.51,-8.25,-8.29,0,*50
1489662430.95,38631,9.88,73210.3,-6.51,-7.95,-8.07,0,*59
1489662432.16,38632,9.88,73186.5,-6.53,-8.41,-8.55,0,*59
1489662433.36,38633,9.88,73188.0,-6.51,-8.21,-8.29,0,*57
1489662434.57,38634,9.88,73204.5,-6.53,-8.45,-8.59,0,*57
1489662435.79,38635,9.94,73220.5,-6.53,-8.45,-8.55,0,*5A
1489662436.98,38636,9.94,73228.0,-6.51,-8.29,-8.29,0,*5A
1489662438.19,38637,9.88,73220.0,-6.51,-8.37,-8.37,0,*5B
1489662439.39,38638,9.94,73234.0,-6.47,-8.37,-8.37,0,*53
1489662440.59,38639,9.88,73230.0,-6.51,-7.87,-7.87,0,*55
1489662441.84,38640,9.88,73224.0,-6.47,-7.57,-7.57,0,*5C
1489662443.07,38641,9.88,73238.3,-6.47,-7.57,-7.53,0,*59
1489662444.34,38642,9.94,73242.0,-6.45,-7.69,-7.69,0,*5C
1489662445.61,38643,9.94,73228.8,-6.45,-7.57,-7.57,0,*5D
1489662446.84,38644,9.88,73220.8,-6.43,-7.53,-7.43,0,*5D
1489662448.08,38645,9.88,73220.5,-6.43,-7.31,-7.31,0,*5D
1489662449.34,38646,9.94,73220.5,-6.41,-7.39,-7.39,0,*5C
1489662450.61,38647,9.88,73224.3,-6.41,-7.27,-7.27,0,*5D
1489662451.89,38648,9.94,73222.0,-6.41,-7.35,-7.27,0,*51
1489662453.14,38649,9.88,73216.5,-6.39,-7.61,-7.65,0,*58
1489662454.36,38650,9.88,73234.0,-6.39,-7.65,-7.53,0,*51
1489662455.63,38651,9.88,73234.5,-6.37,-7.73,-7.73,0,*5B
1489662456.89,38652,9.88,73244.3,-6.37,-7.95,-7.95,0,*58
1489662458.11,38653,9.88,73216.5,-6.37,-8.29,-8.25,0,*55
1489662459.32,38654,9.88,73234.0,-6.37,-8.17,-8.17,0,*5E
1489662460.57,38655,9.88,73240.3,-6.35,-7.95,-7.91,0,*59
1489662461.76,38656,9.88,73258.3,-6.35,-8.25,-8.33,0,*59
1489662462.98,38657,9.88,73190.8,-6.37,-8.63,-8.63,0,*5D
1489662464.2,38658,9.88,73176.3,-6.37,-8.37,-8.37,0,*52
1489662465.41,38659,9.94,73200.8,-6.37,-8.29,-8.29,0,*53
1489662466.68,38660,9.88,73200.5,-6.37,-7.99,-7.99,0,*59
1489662467.92,38661,9.88,73212.5,-6.35,-8.03,-8.03,0,*5A
1489662469.18,38662,9.88,73208.3,-6.37,-7.95,-7.99,0,*57
1489662470.45,38663,9.88,73204.8,-6.37,-7.95,-7.99,0,*56
1489662471.65,38664,9.88,73206.3,-6.35,-8.45,-8.59,0,*52
1489662472.89,38665,9.88,73196.3,-6.37,-9.05,-9.11,0,*59
1489662474.11,38666,9.94,73194.5,-6.39,-9.61,-9.75,0,*54
1489662475.35,38667,9.88,73192.5,-6.41,-10.19,-10.23,0,*56
1489662476.56,38668,9.88,73178.3,-6.41,-9.89,-9.97,0,*5F
1489662477.79,38669,9.88,73194.3,-6.45,-10.01,-10.15,0,*50
1489662479.01,38670,9.88,73210.8,-6.45,-9.19,-9.19,0,*5D
1489662480.27,38671,9.88,73224.0,-6.47,-9.41,-9.41,0,*5E
1489662481.47,38672,9.94,73202.5,-6.47,-9.19,-9.27,0,*50
1489662482.67,38673,9.94,73198.8,-6.47,-8.85,-8.89,0,*50
1489662483.9,38674,9.88,73190.5,-6.51,-8.37,-8.51,0,*5C
1489662485.1,38675,9.94,73198.8,-6.51,-8.29,-8.37,0,*52
1489662486.32,38676,9.88,73206.8,-6.47,-8.07,-8.17,0,*58
1489662487.52,38677,9.88,73192.8,-6.47,-8.97,-9.01,0,*56
1489662488.72,38678,9.88,73184.8,-6.47,-8.75,-8.85,0,*58
1489662489.92,38679,9.94,73182.5,-6.51,-8.25,-8.29,0,*5D
1489662491.12,38680,9.88,73176.5,-6.51,-8.29,-8.37,0,*58
1489662492.31,38681,9.88,73176.5,-6.47,-8.25,-8.33,0,*56
1489662493.51,38682,9.88,73174.0,-6.47,-8.17,-8.21,0,*57
1489662494.7,38683,9.94,73210.5,-6.51,-8.21,-8.25,0,*50
1489662495.9,38684,9.94,73196.3,-6.47,-8.33,-8.45,0,*55
1489662497.1,38685,9.88,73206.3,-6.51,-8.93,-9.01,0,*58
1489662498.3,38686,9.88,73180.3,-6.51,-8.75,-8.75,0,*51
1489662499.52,38687,9.88,73190.8,-6.51,-8.41,-8.51,0,*51
1489662500.75,38688,9.88,73188.8,-6.47,-8.07,-8.21,0,*5C
1489662501.94,38689,9.88,73214.0,-6.51,-8.29,-8.41,0,*50
1489662503.16,38690,9.88,73216.5,-6.47,-8.07,-8.17,0,*50
1489662504.38,38691,9.88,73194.3,-6.51,-8.29,-8.51,0,*58
1489662505.58,38692,9.88,73200.8,-6.51,-8.25,-8.29,0,*58
1489662506.77,38693,9.88,73196.5,-6.47,-8.25,-8.33,0,*55
1489662507.97,38694,9.88,73202.8,-6.51,-8.37,-8.41,0,*53
1489662509.19,38695,9.88,73188.3,-6.47,-9.83,-10.09,0,*6E
1489662510.4,38696,9.88,73202.0,-6.47,-9.01,-9.05,0,*53
1489662511.6,38697,9.88,73190.3,-6.47,-8.85,-8.97,0,*55
1489662512.83,38698,9.94,73164.0,-6.51,-10.53,-10.79,0,*56
1489662514.04,38699,9.94,73164.5,-6.55,-10.01,-10.09,0,*53